User: anonymous
Location: Unspecified
(0.0000°N, 0.0000°E)
Time: 17:10:15
(UTC+02:00)
Language:

ARIANE 44L R/B - Orbit

View from above orbital plane
View from above orbital plane
View from above satellite
View from above satellite

Ground track
Ground track

The orbit data is extracted from the following two-line orbital elements,

1 26901U 01039B   14210.89549346  .00009034  00000-0  20982-2 0   717
2 26901 007.3757 308.7925 6993099 006.2774 338.6124 02.65197990114780
Epoch (UTC): 29 July 2014 21:29:30
Eccentricity: 0.6993099
inclination: 7.3757°
perigee height: 251 km
apogee height: 31087 km
right ascension of ascending node: 308.7925°
argument of perigee: 6.2774°
revolutions per day: 2.65197990
mean anomaly at epoch: 338.6124°
orbit number at epoch: 11478

The dashed part of the orbit path shows where the satellite is in the earth's shadow,  

DLR